{"data":{"norad_id":68620,"epoch":"2026-09-19T18:35:02.802336Z","epoch_age_seconds":106594,"freshness":"FRESH","line1":"1 68620U 26073U   26262.77433799  .00018719  00000+0  58029-3 0  9999","line2":"2 68620  97.2887 100.8675 0001758  92.5546 267.5898 15.33467602 25632","mean_motion":15.33467602,"eccentricity":0.0001758,"inclination_deg":97.2887,"raan_deg":100.8675,"arg_perigee_deg":92.5546,"mean_anomaly_deg":267.5898,"bstar":0.00058029,"rev_number":2563,"period_min":93.90482055975,"perigee_km":464.27282050129,"apogee_km":466.67903480665,"semimajor_km":6843.612927654,"source":"CELESTRAK","updated_at":"2026-09-20T09:00:43.946907Z"}}